Weather History for KMLP - October, 2011

Change the Weather History Date:

Saturday, October 22, 2011

  Actual Average (K3TH) Record (K3TH)
Temperature  
Mean Temperature 39 °F -  
Max Temperature 41 °F 52 °F 64 °F (1999)
Min Temperature 37 °F 33 °F 30 °F (1998)
Degree Days  
Heating Degree Days 26    
Moisture  
Dew Point 39 °F    
Average Humidity 99    
Maximum Humidity 100    
Minimum Humidity 93    
Precipitation  
Precipitation 0.41 in - - ()
Sea Level Pressure  
Sea Level Pressure 30.11 in    
Wind  
Wind Speed 9 mph (WSW)    
Max Wind Speed 21 mph    
Max Gust Speed 44 mph    
Visibility 3 miles    
Events Fog , Rain , Thunderstorm    
Averages and records for this station are not official NWS values.
T = Trace of Precipitation, MM = Missing Value Source: NWS Daily Summary

Daily Weather History Graph

Daily Weather History Graph

Search for Another Location

Airport or City:

Trip Planner

Search our weather history database for the weather conditions in past years. The results will help you decide how hot, cold, wet, or windy it might be!

Date:

Astronomy

Oct. 22, 2011 Rise Set
Actual Time 7:11 AM PDT 5:42 PM PDT
Civil Twilight 6:39 AM PDT 6:13 PM PDT
Nautical Twilight 6:04 AM PDT 6:49 PM PDT
Astronomical Twilight 5:28 AM PDT 7:24 PM PDT
Moon 1:54 AM PDT (10/22) 3:18 PM PDT (10/22)
Length of Visible Light 11h 33m
Length of Day
10h 31m
Waning Crescent, 22% of the Moon is Illuminated
Oct 22
Waning Crescent
Oct 26
New
Nov 2
First Quarter
Nov 10
Full
Nov 18
Last Quarter

Hourly Weather History & Observations

Time (PDT) Temp. Windchill Dew Point Humidity Pressure Visibility Wind Dir Wind Speed Gust Speed Precip Events Conditions
12:16 AM 39.2 °F 33.6 °F 39.2 °F 100% 30.19 in 0.8 mi West 8.1 mph - N/A   Overcast
12:23 AM 39.2 °F 35.0 °F 39.2 °F 100% 30.19 in 0.2 mi Variable 5.8 mph - N/A Fog Fog
12:34 AM 39.2 °F 35.9 °F 39.2 °F 100% 30.20 in 0.5 mi Variable 4.6 mph 20.7 mph N/A Fog Fog
12:53 AM 39.0 °F 34.0 °F 39.0 °F 100% 30.07 in 0.2 mi Variable 6.9 mph - N/A Fog Fog
1:21 AM 37.4 °F 31.4 °F 37.4 °F 100% 30.20 in 1.0 mi West 8.1 mph 16.1 mph N/A   Mist
1:29 AM 37.4 °F 30.8 °F 37.4 °F 100% 30.20 in 0.5 mi West 9.2 mph 18.4 mph N/A Fog Fog
1:39 AM 37.4 °F 30.3 °F 37.4 °F 100% 30.20 in 1.0 mi West 10.4 mph 19.6 mph N/A   Mist
1:53 AM 37.9 °F 31.5 °F 37.9 °F 100% 30.07 in 1.8 mi West 9.2 mph 18.4 mph N/A   Overcast
2:07 AM 37.4 °F 29.8 °F 37.4 °F 100% 30.20 in 0.8 mi WSW 11.5 mph 19.6 mph N/A   Overcast
2:21 AM 37.4 °F 30.8 °F 37.4 °F 100% 30.20 in 0.2 mi WSW 9.2 mph - N/A Fog Fog
2:29 AM 37.4 °F 31.4 °F 37.4 °F 100% 30.20 in 1.2 mi West 8.1 mph - N/A   Overcast
2:31 AM 37.4 °F 30.8 °F 37.4 °F 100% 30.20 in 5.0 mi West 9.2 mph - N/A   Overcast
2:38 AM 37.4 °F 32.1 °F 37.4 °F 100% 30.20 in 10.0 mi Variable 6.9 mph 24.2 mph N/A   Overcast
2:53 AM 37.9 °F 32.1 °F 37.9 °F 100% 30.07 in 10.0 mi West 8.1 mph - N/A   Overcast
3:22 AM 37.4 °F 30.8 °F 37.4 °F 100% 30.19 in 8.0 mi West 9.2 mph 16.1 mph N/A   Overcast
3:36 AM 37.4 °F 31.4 °F 37.4 °F 100% 30.19 in 1.2 mi WSW 8.1 mph 20.7 mph N/A   Overcast
3:50 AM 37.4 °F 32.1 °F 37.4 °F 100% 30.19 in 0.5 mi Variable 6.9 mph - N/A Fog Fog
3:53 AM 37.9 °F 32.7 °F 37.9 °F 100% 30.07 in 0.5 mi Variable 6.9 mph - N/A Fog Fog
4:09 AM 37.4 °F 32.8 °F 37.4 °F 100% 30.19 in 1.0 mi Variable 5.8 mph - N/A   Mist
4:17 AM 37.4 °F 32.1 °F 37.4 °F 100% 30.19 in 0.2 mi Variable 6.9 mph - N/A Fog Fog
4:53 AM 37.9 °F 32.1 °F 37.9 °F 100% 30.07 in 0.2 mi West 8.1 mph - N/A Fog Fog
5:53 AM 37.9 °F 34.4 °F 37.9 °F 100% 30.07 in 0.2 mi Variable 4.6 mph - N/A Fog Fog
6:53 AM 37.9 °F 32.1 °F 37.9 °F 100% 30.06 in 0.2 mi West 8.1 mph - N/A Fog Fog
7:46 AM 37.4 °F 31.4 °F 37.4 °F 100% 30.17 in 0.5 mi SW 8.1 mph - 0.00 in Fog , Rain Light Rain
7:53 AM 37.9 °F 32.1 °F 37.9 °F 100% 30.04 in 0.8 mi SW 8.1 mph - 0.01 in Rain Light Rain
8:09 AM 37.4 °F 32.8 °F 37.4 °F 100% 30.16 in 0.2 mi Variable 5.8 mph - 0.00 in Fog , Rain Light Rain
8:44 AM 37.4 °F 32.8 °F 37.4 °F 100% 30.16 in 0.5 mi Variable 5.8 mph - 0.02 in Fog , Rain Light Rain
8:53 AM 37.9 °F 32.7 °F 37.9 °F 100% 30.05 in 0.2 mi Variable 6.9 mph - 0.03 in Fog , Rain Rain
9:21 AM 37.4 °F 31.4 °F 37.4 °F 100% 30.16 in 0.2 mi SW 8.1 mph 24.2 mph 0.02 in Fog , Rain Light Rain
9:30 AM 37.4 °F 29.8 °F 37.4 °F 100% 30.16 in 0.2 mi SW 11.5 mph 21.9 mph 0.02 in Fog , Rain Light Rain
9:53 AM 37.9 °F 31.5 °F 37.9 °F 100% 30.04 in 1.0 mi SSW 9.2 mph 23.0 mph 0.04 in Rain Light Rain
10:03 AM 37.4 °F 31.4 °F 37.4 °F 100% 30.16 in 2.0 mi WSW 8.1 mph 18.4 mph 0.00 in Rain Light Rain
10:06 AM 37.4 °F 30.8 °F 37.4 °F 100% 30.16 in 1.2 mi SW 9.2 mph 18.4 mph 0.01 in Rain Light Rain
10:13 AM 37.4 °F 30.3 °F 37.4 °F 100% 30.16 in 0.5 mi WSW 10.4 mph 19.6 mph 0.01 in Fog , Rain Light Rain
10:42 AM 37.4 °F 34.9 °F 37.4 °F 100% 30.16 in 1.2 mi Variable 3.5 mph - 0.03 in Rain Light Rain
10:51 AM 37.4 °F 32.8 °F 37.4 °F 100% 30.15 in 0.5 mi Variable 5.8 mph - 0.03 in Fog , Rain Light Rain
10:53 AM 37.9 °F 33.5 °F 37.9 °F 100% 30.04 in 0.5 mi Variable 5.8 mph - 0.03 in Fog , Rain Light Rain
11:42 AM 37.4 °F 31.4 °F 37.4 °F 100% 30.15 in 1.0 mi SSW 8.1 mph 23.0 mph 0.05 in Rain Light Rain
11:53 AM 37.9 °F 30.5 °F 37.9 °F 100% 30.02 in 1.5 mi SW 11.5 mph 21.9 mph 0.08 in Rain Rain
12:14 PM 37.4 °F 30.8 °F 37.4 °F 100% 30.13 in 0.8 mi SW 9.2 mph 23.0 mph 0.02 in Rain Light Rain
12:35 PM 37.4 °F 32.8 °F 37.4 °F 100% 30.12 in 0.2 mi Variable 5.8 mph - 0.05 in Fog , Rain Light Rain
12:43 PM 37.4 °F 30.3 °F 37.4 °F 100% 30.12 in 0.2 mi SW 10.4 mph 19.6 mph 0.07 in Fog , Rain Rain
12:47 PM 37.4 °F 30.8 °F 37.4 °F 100% 30.12 in 0.5 mi SW 9.2 mph 19.6 mph 0.08 in Fog , Rain Rain
12:53 PM 37.9 °F 31.5 °F 37.9 °F 100% 30.00 in 0.5 mi SW 9.2 mph 26.5 mph 0.09 in Fog , Rain Rain
1:01 PM 37.4 °F 30.3 °F 37.4 °F 100% 30.11 in 1.0 mi SW 10.4 mph 19.6 mph 0.01 in Rain Light Rain
1:08 PM 37.4 °F 29.8 °F 37.4 °F 100% 30.11 in 0.5 mi SW 11.5 mph 27.6 mph 0.02 in Fog , Rain Light Rain
1:17 PM 39.2 °F 35.0 °F 39.2 °F 100% 30.11 in 1.5 mi Variable 5.8 mph 21.9 mph 0.04 in Rain Light Rain
1:24 PM 39.2 °F 33.6 °F 39.2 °F 100% 30.11 in 0.8 mi SW 8.1 mph 21.9 mph 0.04 in Rain Light Rain
1:33 PM 39.2 °F 33.0 °F 39.2 °F 100% 30.11 in 0.2 mi SW 9.2 mph 29.9 mph 0.04 in Fog , Rain Light Rain
1:48 PM 39.2 °F 31.6 °F 39.2 °F 100% 30.11 in 0.2 mi WSW 12.7 mph 27.6 mph 0.05 in Fog , Rain Light Rain
1:53 PM 39.0 °F 31.8 °F 39.0 °F 100% 29.99 in 0.2 mi WSW 11.5 mph 27.6 mph 0.05 in Fog , Rain Light Rain
2:02 PM 39.2 °F 31.6 °F 39.2 °F 100% 30.11 in 0.5 mi WSW 12.7 mph 27.6 mph 0.00 in Fog , Rain Light Rain
2:21 PM 39.2 °F 31.6 °F 39.2 °F 100% 30.12 in 0.2 mi WSW 12.7 mph 24.2 mph 0.01 in Fog , Rain Light Rain
2:27 PM 39.2 °F 33.6 °F 39.2 °F 100% 30.11 in 1.2 mi SW 8.1 mph 33.4 mph 0.01 in   Overcast
2:36 PM 39.2 °F 31.6 °F 39.2 °F 100% 30.12 in 0.2 mi SW 12.7 mph 26.5 mph 0.01 in Fog , Rain Light Rain
2:45 PM 39.2 °F 32.0 °F 39.2 °F 100% 30.12 in 0.2 mi SW 11.5 mph 27.6 mph 0.02 in Fog , Rain Light Rain
2:53 PM 39.9 °F 32.1 °F 39.9 °F 100% 29.99 in 0.2 mi SW 13.8 mph 32.2 mph 0.02 in Fog , Rain Light Rain
3:23 PM 39.2 °F 32.0 °F 39.2 °F 100% 30.14 in 0.5 mi West 11.5 mph 29.9 mph 0.00 in Fog Fog
3:30 PM 39.2 °F 32.5 °F 39.2 °F 100% 30.14 in 1.5 mi West 10.4 mph 28.8 mph 0.00 in   Overcast
3:36 PM 39.2 °F 32.0 °F 39.2 °F 100% 30.14 in 3.0 mi West 11.5 mph 28.8 mph 0.00 in   Overcast
3:50 PM 39.2 °F 30.8 °F 39.2 °F 100% 30.15 in 10.0 mi WNW 15.0 mph 27.6 mph 0.00 in   Overcast
3:53 PM 39.9 °F 33.9 °F 39.0 °F 97% 30.02 in 10.0 mi WNW 9.2 mph 27.6 mph 0.00 in   Overcast
4:26 PM 39.2 °F 33.0 °F 39.2 °F 100% 30.15 in 10.0 mi NW 9.2 mph 19.6 mph N/A   Overcast
4:53 PM 39.9 °F 34.5 °F 39.9 °F 100% 30.03 in 6.0 mi NW 8.1 mph 19.6 mph N/A   Mostly Cloudy
5:17 PM 39.2 °F 34.2 °F 39.2 °F 100% 30.15 in 10.0 mi Variable 6.9 mph - N/A   Overcast
5:46 PM 39.2 °F 34.2 °F 39.2 °F 100% 30.15 in 10.0 mi West 6.9 mph - N/A   Overcast
5:53 PM 39.9 °F 33.9 °F 39.0 °F 97% 30.03 in 10.0 mi West 9.2 mph - N/A   Overcast
6:18 PM 39.2 °F 33.6 °F 39.2 °F 100% 30.15 in 10.0 mi WNW 8.1 mph - N/A   Scattered Clouds
6:39 PM 41.0 °F 34.7 °F 39.2 °F 93% 30.14 in 10.0 mi WSW 10.4 mph - N/A Thunderstorm Scattered Clouds
6:48 PM 41.0 °F 36.4 °F 39.2 °F 93% 30.13 in 10.0 mi Variable 6.9 mph 17.3 mph N/A   Mostly Cloudy
6:53 PM 41.0 °F 35.8 °F 39.9 °F 96% 30.00 in 10.0 mi WSW 8.1 mph - N/A   Mostly Cloudy
7:07 PM 39.2 °F 35.0 °F 39.2 °F 100% 30.12 in 2.5 mi SSW 5.8 mph - 0.00 in Rain , Thunderstorm Light Thunderstorms and Rain
7:09 PM 39.2 °F 33.6 °F 39.2 °F 100% 30.12 in 1.0 mi SW 8.1 mph - 0.00 in Rain , Thunderstorm Light Thunderstorms and Rain
7:11 PM 39.2 °F 34.2 °F 39.2 °F 100% 30.12 in 0.8 mi SSW 6.9 mph - 0.00 in Rain , Thunderstorm Light Thunderstorms and Rain
7:17 PM 39.2 °F 32.5 °F 39.2 °F 100% 30.12 in 1.0 mi SSW 10.4 mph 23.0 mph 0.00 in Rain Light Rain
7:20 PM 39.2 °F 32.5 °F 39.2 °F 100% 30.12 in 2.0 mi SW 10.4 mph 23.0 mph 0.01 in Rain Light Rain
7:27 PM 39.2 °F 31.2 °F 39.2 °F 100% 30.12 in 6.0 mi SW 13.8 mph 26.5 mph 0.02 in Rain Light Rain
7:53 PM 41.0 °F 34.3 °F 41.0 °F 100% 29.98 in 8.0 mi SSW 11.5 mph 24.2 mph 0.02 in   Overcast
8:53 PM 41.0 °F 33.9 °F 39.9 °F 96% 29.95 in 10.0 mi SSW 12.7 mph 36.8 mph 0.01 in Rain Light Rain
9:45 PM 41.0 °F 33.1 °F 39.2 °F 93% 30.09 in 2.5 mi SW 15.0 mph 29.9 mph 0.02 in Rain Light Rain
9:49 PM 41.0 °F 32.5 °F 39.2 °F 93% 30.10 in 2.0 mi SW 17.3 mph 31.1 mph 0.02 in Rain Light Rain
9:53 PM 41.0 °F 33.5 °F 39.9 °F 96% 29.96 in 2.0 mi SW 13.8 mph 35.7 mph 0.02 in Rain Light Rain
10:01 PM 41.0 °F 31.6 °F 39.2 °F 93% 30.09 in 10.0 mi SW 20.7 mph 43.7 mph 0.00 in   Overcast
10:16 PM 41.0 °F 32.8 °F 41.0 °F 100% 30.10 in 10.0 mi SW 16.1 mph 31.1 mph 0.00 in   Overcast
10:23 PM 41.0 °F 31.9 °F 41.0 °F 100% 30.10 in 10.0 mi SW 19.6 mph 32.2 mph 0.00 in   Overcast
10:35 PM 41.0 °F 33.9 °F 41.0 °F 100% 30.11 in 10.0 mi WSW 12.7 mph 28.8 mph 0.00 in Rain Light Rain
10:53 PM 41.0 °F 34.7 °F 41.0 °F 100% 29.97 in 10.0 mi SW 10.4 mph 29.9 mph 0.00 in   Overcast
11:53 PM 41.0 °F 35.2 °F 39.9 °F 96% 29.96 in 10.0 mi West 9.2 mph 21.9 mph 0.01 in Rain Light Rain